Location: Eaton Estates
(41.3089°N, 82.0057°W)
Time: 11:58:30
(UTC+00:00)

Cosmos 2123 Rocket - Pass Details

Date: 22 October 2021
Orbit: 961 x 992 km, 82.9° (Epoch: 29 November)

Event Time Altitude Azimuth Distance (km) Brightness Sun altitude
Rises 01:22:41 0° 337° (NNW) 3,714 7.5 -31.6°
Reaches altitude 10° 01:25:58 10° 320° (NW) 2,758 6.9 -32.1°
Maximum altitude 01:30:11 19° 278° (W) 2,160 6.5 -32.9°
Drops below altitude 10° 01:34:22 10° 236° (SW) 2,735 6.7 -33.7°
Sets 01:37:37 0° 219° (SW) 3,673 7.3 -34.3°
